Year,Month,Day,Hour,Minute,Value (Times are PST for insolation in W/m^2)
2016,07,04,10,03,800.00
2016,07,04,10,04,800.00
2016,07,04,10,05,800.00
2016,07,04,10,06,779.40
2016,07,04,10,07,751.30
2016,07,04,10,08,798.00
2016,07,04,10,09,633.60
2016,07,04,10,10,387.00
2016,07,04,10,11,387.00
2016,07,04,10,12,370.20
2016,07,04,10,13,355.00
2016,07,04,10,14,355.00
2016,07,04,10,15,355.00
2016,07,04,10,16,548.60
2016,07,04,10,17,632.80
2016,07,04,10,18,635.00
2016,07,04,10,19,781.50
2016,07,04,10,20,816.00
2016,07,04,10,21,816.00
2016,07,04,10,22,816.00
2016,07,04,10,23,812.80
2016,07,04,10,24,753.80
2016,07,04,10,25,845.80
2016,07,04,10,26,843.40
2016,07,04,10,27,840.00
2016,07,04,10,28,841.40
2016,07,04,10,29,848.90
2016,07,04,10,30,863.00
2016,07,04,10,31,873.50
2016,07,04,10,32,861.30
2016,07,04,10,33,813.80
2016,07,04,10,34,766.00
2016,07,04,10,35,766.00
2016,07,04,10,36,766.00
2016,07,04,10,37,866.30
2016,07,04,10,38,940.70
2016,07,04,10,39,947.00
2016,07,04,10,40,872.00
2016,07,04,10,41,834.80
2016,07,04,10,42,831.00
2016,07,04,10,43,900.40
2016,07,04,10,44,901.10
2016,07,04,10,45,904.80
2016,07,04,10,46,932.00
2016,07,04,10,47,932.00
2016,07,04,10,48,932.00
2016,07,04,10,49,943.60
2016,07,04,10,50,1013.00
2016,07,04,10,51,1013.00
2016,07,04,10,52,1013.30
2016,07,04,10,53,1014.00
2016,07,04,10,54,1014.00
2016,07,04,10,55,695.60
2016,07,04,10,56,267.90
2016,07,04,10,57,259.70
2016,07,04,10,58,248.70
2016,07,04,10,59,237.90
2016,07,04,11,00,229.70
2016,07,04,11,01,222.10
2016,07,04,11,02,217.10
2016,07,04,11,03,212.20
2016,07,04,11,04,208.00
2016,07,04,11,05,207.00
2016,07,04,11,06,207.00
2016,07,04,11,07,206.10
2016,07,04,11,08,204.10
2016,07,04,11,09,207.00
2016,07,04,11,10,213.30
2016,07,04,11,11,216.20
2016,07,04,11,12,217.70
2016,07,04,11,13,214.70
2016,07,04,11,14,208.50
2016,07,04,11,15,210.70
2016,07,04,11,16,220.00
2016,07,04,11,17,220.00
2016,07,04,11,18,220.00
2016,07,04,11,19,220.00
2016,07,04,11,20,220.00
2016,07,04,11,21,220.00
2016,07,04,11,22,688.00
2016,07,04,11,23,1065.00
2016,07,04,11,24,1081.00
2016,07,04,11,25,1081.00
2016,07,04,11,26,1115.30
2016,07,04,11,27,1129.00
2016,07,04,11,28,1129.00
2016,07,04,11,29,1129.00
2016,07,04,11,30,485.70
2016,07,04,11,31,495.10
2016,07,04,11,32,492.10
2016,07,04,11,33,353.70
2016,07,04,11,34,326.30
2016,07,04,11,35,298.10
2016,07,04,11,36,278.30
2016,07,04,11,37,264.90
2016,07,04,11,38,256.60
2016,07,04,11,39,250.70
2016,07,04,11,40,245.20
2016,07,04,11,41,245.70
2016,07,04,11,42,252.50
2016,07,04,11,43,263.20
2016,07,04,11,44,271.60
2016,07,04,11,45,275.10
2016,07,04,11,46,269.20
2016,07,04,11,47,258.30
2016,07,04,11,48,248.60
2016,07,04,11,49,243.80
2016,07,04,11,50,230.80
2016,07,04,11,51,221.30
2016,07,04,11,52,202.90
2016,07,04,11,53,176.50
2016,07,04,11,54,156.90
2016,07,04,11,55,143.40
2016,07,04,11,56,131.60
2016,07,04,11,57,122.00
2016,07,04,11,58,115.60
2016,07,04,11,59,112.20
2016,07,04,12,00,108.50
2016,07,04,12,01,106.40
2016,07,04,12,02,104.70
2016,07,04,12,03,103.20
2016,07,04,12,04,101.10
2016,07,04,12,05,99.10
2016,07,04,12,06,98.00
2016,07,04,12,07,98.00
2016,07,04,12,08,99.10
2016,07,04,12,09,102.50
2016,07,04,12,10,107.30
2016,07,04,12,11,112.50
2016,07,04,12,12,119.10
2016,07,04,12,13,126.60
2016,07,04,12,14,133.70
2016,07,04,12,15,141.00
2016,07,04,12,16,152.00
2016,07,04,12,17,153.00
2016,07,04,12,18,154.00
2016,07,04,12,19,174.20
2016,07,04,12,20,177.70
2016,07,04,12,21,176.40
2016,07,04,12,22,180.10
2016,07,04,12,23,186.20
2016,07,04,12,24,190.90
2016,07,04,12,25,195.30
2016,07,04,12,26,204.20
2016,07,04,12,27,213.80
2016,07,04,12,28,220.10
2016,07,04,12,29,225.90
2016,07,04,12,30,232.70
2016,07,04,12,31,240.00
2016,07,04,12,32,249.20
2016,07,04,12,33,261.00
2016,07,04,12,34,274.30
2016,07,04,12,35,285.60
2016,07,04,12,36,298.40
2016,07,04,12,37,309.10
2016,07,04,12,38,317.00
2016,07,04,12,39,326.10
2016,07,04,12,40,402.20
2016,07,04,12,41,327.00
2016,07,04,12,42,326.80
2016,07,04,12,43,327.00
2016,07,04,12,44,348.70
2016,07,04,12,45,374.20
2016,07,04,12,46,386.10
2016,07,04,12,47,374.90
2016,07,04,12,48,365.00
2016,07,04,12,49,381.70
2016,07,04,12,50,399.00
2016,07,04,12,51,414.90
2016,07,04,12,52,406.00
2016,07,04,12,53,365.70
2016,07,04,12,54,355.00
2016,07,04,12,55,350.80
2016,07,04,12,56,356.00
2016,07,04,12,57,367.60
2016,07,04,12,58,395.40
2016,07,04,12,59,435.00
2016,07,04,13,00,443.00
2016,07,04,13,01,443.00
2016,07,04,13,02,443.00
2016,07,04,13,03,484.90
2016,07,04,13,04,457.20
2016,07,04,13,05,463.10
2016,07,04,13,06,485.00
2016,07,04,13,07,485.00
2016,07,04,13,08,499.10
2016,07,04,13,09,545.70
2016,07,04,13,10,507.00
2016,07,04,13,11,517.00
2016,07,04,13,12,517.00
2016,07,04,13,13,517.00
2016,07,04,13,14,517.00
2016,07,04,13,15,517.00
2016,07,04,13,16,517.00
2016,07,04,13,17,517.00
2016,07,04,13,18,517.00
2016,07,04,13,19,517.00
2016,07,04,13,20,517.00
2016,07,04,13,21,517.00
2016,07,04,13,22,517.00
2016,07,04,13,23,517.00
2016,07,04,13,24,517.00
2016,07,04,13,25,517.00
2016,07,04,13,26,517.00
2016,07,04,13,27,509.30
2016,07,04,13,28,355.00
2016,07,04,13,29,355.00
2016,07,04,13,30,355.00
2016,07,04,13,31,355.00
2016,07,04,13,32,355.00
2016,07,04,13,33,329.30
2016,07,04,13,34,266.30
2016,07,04,13,35,257.60
2016,07,04,13,36,227.80
2016,07,04,13,37,206.30
2016,07,04,13,38,204.30
2016,07,04,13,39,211.60
2016,07,04,13,40,219.10
2016,07,04,13,41,229.80
2016,07,04,13,42,246.70
2016,07,04,13,43,273.00
2016,07,04,13,44,343.20
2016,07,04,13,45,364.00
2016,07,04,13,46,364.00
2016,07,04,13,47,364.00
2016,07,04,13,48,364.00
2016,07,04,13,49,364.00
2016,07,04,13,50,965.00
2016,07,04,13,51,965.00
2016,07,04,13,52,965.00
2016,07,04,13,53,969.70
2016,07,04,13,54,1015.50
2016,07,04,13,55,1087.90
2016,07,04,13,56,1080.10
2016,07,04,13,57,1051.30
2016,07,04,13,58,998.00
2016,07,04,13,59,998.00
2016,07,04,14,00,998.00
2016,07,04,14,01,998.00
2016,07,04,14,02,610.40
2016,07,04,14,03,250.00
2016,07,04,14,04,237.80
2016,07,04,14,05,243.30
2016,07,04,14,06,246.60
2016,07,04,14,07,243.80
2016,07,04,14,08,240.00
2016,07,04,14,09,237.40
2016,07,04,14,10,254.10
2016,07,04,14,11,301.30
2016,07,04,14,12,275.50
2016,07,04,14,13,268.50
2016,07,04,14,14,257.90
2016,07,04,14,15,258.90
2016,07,04,14,16,276.00
2016,07,04,14,17,437.30
2016,07,04,14,18,1123.00
2016,07,04,14,19,982.40
2016,07,04,14,20,631.00
2016,07,04,14,21,477.90
2016,07,04,14,22,242.20
2016,07,04,14,23,264.10
2016,07,04,14,24,271.30
2016,07,04,14,25,276.00
2016,07,04,14,26,276.00
2016,07,04,14,27,276.00
2016,07,04,14,28,530.00
2016,07,04,14,29,657.00
2016,07,04,14,30,657.00
2016,07,04,14,31,657.00
2016,07,04,14,32,657.00
2016,07,04,14,33,657.00
2016,07,04,14,34,657.00
2016,07,04,14,35,926.50
2016,07,04,14,36,956.00
2016,07,04,14,37,957.00
2016,07,04,14,38,963.60
2016,07,04,14,39,935.60
2016,07,04,14,40,947.60
2016,07,04,14,41,930.60
2016,07,04,14,42,922.40
2016,07,04,14,43,921.00
2016,07,04,14,44,921.00
2016,07,04,14,45,921.00
2016,07,04,14,46,934.70
2016,07,04,14,47,942.00
2016,07,04,14,48,929.00
2016,07,04,14,49,929.10
2016,07,04,14,50,936.20
2016,07,04,14,51,879.30
2016,07,04,14,52,910.40
2016,07,04,14,53,941.90
2016,07,04,14,54,944.00
2016,07,04,14,55,944.00
2016,07,04,14,56,918.30
2016,07,04,14,57,963.80
2016,07,04,14,58,910.00
2016,07,04,14,59,947.90
2016,07,04,15,00,924.00
2016,07,04,15,01,912.70
2016,07,04,15,02,904.50
2016,07,04,15,03,900.30
2016,07,04,15,04,893.50
2016,07,04,15,05,895.00
2016,07,04,15,06,894.30
2016,07,04,15,07,892.20
2016,07,04,15,08,889.00
2016,07,04,15,09,881.00
2016,07,04,15,10,869.00
2016,07,04,15,11,860.40
2016,07,04,15,12,860.90
2016,07,04,15,13,861.80
2016,07,04,15,14,861.00
2016,07,04,15,15,861.00
2016,07,04,15,16,864.00
2016,07,04,15,17,867.30
2016,07,04,15,18,872.90
2016,07,04,15,19,868.00
2016,07,04,15,20,865.20
2016,07,04,15,21,867.90
2016,07,04,15,22,868.00
2016,07,04,15,23,868.90
2016,07,04,15,24,877.30
2016,07,04,15,25,881.40
2016,07,04,15,26,895.00
2016,07,04,15,27,895.00
2016,07,04,15,28,691.00
2016,07,04,15,29,188.70
2016,07,04,15,30,222.90
2016,07,04,15,31,249.40
2016,07,04,15,32,255.40
2016,07,04,15,33,296.10
2016,07,04,15,34,345.90
2016,07,04,15,35,389.00
2016,07,04,15,36,401.00
2016,07,04,15,37,557.00
2016,07,04,15,38,635.00
2016,07,04,15,39,489.50
2016,07,04,15,40,395.30
2016,07,04,15,41,381.00
2016,07,04,15,42,381.00
2016,07,04,15,43,325.80
2016,07,04,15,44,395.20
2016,07,04,15,45,399.00
2016,07,04,15,46,390.30
2016,07,04,15,47,308.80
2016,07,04,15,48,308.30
2016,07,04,15,49,257.60
2016,07,04,15,50,234.00
2016,07,04,15,51,211.40
2016,07,04,15,52,188.00
2016,07,04,15,53,167.90
2016,07,04,15,54,154.00
2016,07,04,15,55,145.00
2016,07,04,15,56,139.10
2016,07,04,15,57,136.00
2016,07,04,15,58,136.10
2016,07,04,15,59,138.20
2016,07,04,16,00,142.30
2016,07,04,16,01,149.20
2016,07,04,16,02,159.20
2016,07,04,16,03,174.40
2016,07,04,16,04,194.10
2016,07,04,16,05,217.60
2016,07,04,16,06,259.90
2016,07,04,16,07,255.40
2016,07,04,16,08,253.00
2016,07,04,16,09,253.40
2016,07,04,16,10,257.00
2016,07,04,16,11,257.10
2016,07,04,16,12,258.00
2016,07,04,16,13,260.60
2016,07,04,16,14,275.00
2016,07,04,16,15,290.00
2016,07,04,16,16,290.00
2016,07,04,16,17,283.60
2016,07,04,16,18,264.10
2016,07,04,16,19,236.70
2016,07,04,16,20,213.10
2016,07,04,16,21,200.90
2016,07,04,16,22,197.00
2016,07,04,16,23,197.00
2016,07,04,16,24,202.00
2016,07,04,16,25,223.50
2016,07,04,16,26,251.30
2016,07,04,16,27,262.90
2016,07,04,16,28,242.60
2016,07,04,16,29,221.80
2016,07,04,16,30,213.30
2016,07,04,16,31,178.20
2016,07,04,16,32,163.00
2016,07,04,16,33,163.00
2016,07,04,16,34,171.60
2016,07,04,16,35,223.00
2016,07,04,16,36,223.00
2016,07,04,16,37,410.40
2016,07,04,16,38,879.00
2016,07,04,16,39,879.00
2016,07,04,16,40,880.20
2016,07,04,16,41,883.70
2016,07,04,16,42,886.00
2016,07,04,16,43,800.10
2016,07,04,16,44,747.10
2016,07,04,16,45,766.00
2016,07,04,16,46,766.00
2016,07,04,16,47,429.60
2016,07,04,16,48,313.80
2016,07,04,16,49,320.00
2016,07,04,16,50,320.00
2016,07,04,16,51,320.00
2016,07,04,16,52,332.70
2016,07,04,16,53,316.90
2016,07,04,16,54,327.00
2016,07,04,16,55,351.70
2016,07,04,16,56,818.10
2016,07,04,16,57,795.80
2016,07,04,16,58,772.00
2016,07,04,16,59,772.00
2016,07,04,17,00,741.70
2016,07,04,17,01,673.00
2016,07,04,17,02,687.80
2016,07,04,17,03,689.00
2016,07,04,17,04,689.00
2016,07,04,17,05,448.00
2016,07,04,17,06,174.60
2016,07,04,17,07,168.10
2016,07,04,17,08,159.10
2016,07,04,17,09,137.70
2016,07,04,17,10,125.00
2016,07,04,17,11,123.00
2016,07,04,17,12,126.00
2016,07,04,17,13,129.40
2016,07,04,17,14,131.70
2016,07,04,17,15,132.00
2016,07,04,17,16,132.00
2016,07,04,17,17,137.40
2016,07,04,17,18,147.00
2016,07,04,17,19,156.60
2016,07,04,17,20,162.70
2016,07,04,17,21,164.90
2016,07,04,17,22,153.10
2016,07,04,17,23,144.00
2016,07,04,17,24,145.70
2016,07,04,17,25,149.80
2016,07,04,17,26,151.90
2016,07,04,17,27,157.50
2016,07,04,17,28,167.30
2016,07,04,17,29,178.80
2016,07,04,17,30,179.90
2016,07,04,17,31,177.20
2016,07,04,17,32,183.30
2016,07,04,17,33,201.00
2016,07,04,17,34,207.00
2016,07,04,17,35,207.00
2016,07,04,17,36,458.00
2016,07,04,17,37,517.00
2016,07,04,17,38,227.50
2016,07,04,17,39,161.80
2016,07,04,17,40,147.60
2016,07,04,17,41,138.60
2016,07,04,17,42,134.30
2016,07,04,17,43,127.60
2016,07,04,17,44,123.30
2016,07,04,17,45,114.30
2016,07,04,17,46,108.40
2016,07,04,17,47,106.00
2016,07,04,17,48,103.20
2016,07,04,17,49,100.00
2016,07,04,17,50,94.00
2016,07,04,17,51,90.00
2016,07,04,17,52,92.60
2016,07,04,17,53,96.10
2016,07,04,17,54,98.90
2016,07,04,17,55,104.70
2016,07,04,17,56,112.00
2016,07,04,17,57,120.80
2016,07,04,17,58,129.90
2016,07,04,17,59,139.30
2016,07,04,18,00,147.90
2016,07,04,18,01,152.60
2016,07,04,18,02,154.90
2016,07,04,18,03,154.90
2016,07,04,18,04,152.60
2016,07,04,18,05,148.90
2016,07,04,18,06,147.70
2016,07,04,18,07,146.60
2016,07,04,18,08,150.40
2016,07,04,18,09,155.90
2016,07,04,18,10,159.30
2016,07,04,18,11,165.40
2016,07,04,18,12,175.00
2016,07,04,18,13,184.00
2016,07,04,18,14,187.00
2016,07,04,18,15,173.40
2016,07,04,18,16,146.60
2016,07,04,18,17,128.80
2016,07,04,18,18,125.00
2016,07,04,18,19,125.00
2016,07,04,18,20,125.00
2016,07,04,18,21,119.70
2016,07,04,18,22,114.80
2016,07,04,18,23,109.70
2016,07,04,18,24,105.40
2016,07,04,18,25,106.90
2016,07,04,18,26,111.00
2016,07,04,18,27,110.40
2016,07,04,18,28,103.90
2016,07,04,18,29,95.90
2016,07,04,18,30,88.70
2016,07,04,18,31,79.90
2016,07,04,18,32,68.00
2016,07,04,18,33,61.30
2016,07,04,18,34,57.20
2016,07,04,18,35,56.90
2016,07,04,18,36,58.90
2016,07,04,18,37,59.00
2016,07,04,18,38,57.00
2016,07,04,18,39,54.90
2016,07,04,18,40,53.40
2016,07,04,18,41,51.70
2016,07,04,18,42,51.00
2016,07,04,18,43,49.50
2016,07,04,18,44,49.00
2016,07,04,18,45,49.00
2016,07,04,18,46,49.00
2016,07,04,18,47,49.00
2016,07,04,18,48,47.10
2016,07,04,18,49,47.00
2016,07,04,18,50,47.00
2016,07,04,18,51,46.90
2016,07,04,18,52,46.00
2016,07,04,18,53,46.00
2016,07,04,18,54,46.20
2016,07,04,18,55,48.10
2016,07,04,18,56,52.00
2016,07,04,18,57,55.50
2016,07,04,18,58,59.70
2016,07,04,18,59,63.30
2016,07,04,19,00,67.40
2016,07,04,19,01,72.10
2016,07,04,19,02,75.70
2016,07,04,19,03,79.50
2016,07,04,19,04,83.00
2016,07,04,19,05,86.90
2016,07,04,19,06,89.50
2016,07,04,19,07,90.00
2016,07,04,19,08,86.80
2016,07,04,19,09,84.30
2016,07,04,19,10,83.10
2016,07,04,19,11,81.10
2016,07,04,19,12,77.20
2016,07,04,19,13,77.20
2016,07,04,19,14,79.40
2016,07,04,19,15,83.00
2016,07,04,19,16,83.20
2016,07,04,19,17,84.50
2016,07,04,19,18,86.00
2016,07,04,19,19,87.30
2016,07,04,19,20,91.10
2016,07,04,19,21,95.10
2016,07,04,19,22,101.20
2016,07,04,19,23,108.80
2016,07,04,19,24,113.00
2016,07,04,19,25,109.60
2016,07,04,19,26,101.40
2016,07,04,19,27,94.70
2016,07,04,19,28,91.60
2016,07,04,19,29,91.00
2016,07,04,19,30,90.20
2016,07,04,19,31,86.80
2016,07,04,19,32,77.40
2016,07,04,19,33,67.90
2016,07,04,19,34,62.20
2016,07,04,19,35,55.90
2016,07,04,19,36,52.80
2016,07,04,19,37,51.00
2016,07,04,19,38,51.30
2016,07,04,19,39,53.20
2016,07,04,19,40,54.50
2016,07,04,19,41,57.10
2016,07,04,19,42,60.70
2016,07,04,19,43,62.30
2016,07,04,19,44,63.00
2016,07,04,19,45,63.90
2016,07,04,19,46,66.90
2016,07,04,19,47,70.60
2016,07,04,19,48,73.10
2016,07,04,19,49,72.80
2016,07,04,19,50,70.70
2016,07,04,19,51,69.30
2016,07,04,19,52,69.00
2016,07,04,19,53,66.00
2016,07,04,19,54,63.40
2016,07,04,19,55,62.10
2016,07,04,19,56,60.20
2016,07,04,19,57,58.10
2016,07,04,19,58,58.00
2016,07,04,19,59,58.00
2016,07,04,20,00,58.00
2016,07,04,20,01,58.00
2016,07,04,20,02,58.00
2016,07,04,20,03,58.00
2016,07,04,20,04,58.00
2016,07,04,20,05,58.00
2016,07,04,20,06,58.00
2016,07,04,20,07,58.00
